HELLAS-SAT 3

Last updated on Sat Aug 22 2026 00:02:59 GMT+0000 (Coordinated Universal Time)

1 42814U 17040A 26233.48997458 .00000150 00000+0 00000+0 0 9995 2 42814 0.0504 43.0016 0003123 46.6040 95.5988 1.00269989 33467
UTC large
Height (km)
Speed (km/s)
/
Latitude / Longitude
Inclination (degrees)
Orbital Period (minutes)
Azimuth
Elevation
Range (km)
Doppler Factor

Next 0 passes for location: London (51.5072 / 0.1276)

No passes found over London.
HELLAS-SAT 3